This is the latest recevied weather packets stored in our database for station/object KA1JKB. If no packets are shown the sender has not sent any weather packets the latest 10 day(s).
| Time | Temp. | Humidity | Pressure | Rain* | Wind** | Luminosity | Snow |
|---|---|---|---|---|---|---|---|
| 1787682962 | 25° C | 62% | 1017.2 hPa | 0 mm | - | 602 W/m² | - |
| 1787682658 | 25° C | 63% | 1017.4 hPa | 0 mm | - | 670 W/m² | - |
| 1787682353 | 25.56° C | 66% | 1017.2 hPa | 0 mm | - | 720 W/m² | - |
| 1787682049 | 25° C | 64% | 1017.3 hPa | 0 mm | - | 724 W/m² | - |
| 1787681744 | 24.44° C | 63% | 1017.3 hPa | 0 mm | - | 672 W/m² | - |
| 1787681439 | 24.44° C | 65% | 1017.2 hPa | 0 mm | - | 683 W/m² | - |
| 1787681138 | 24.44° C | 67% | 1017.5 hPa | 0 mm | - | 682 W/m² | - |
| 1787680834 | 25° C | 61% | 1017.5 hPa | 0 mm | - | 742 W/m² | - |
| 1787680529 | 24.44° C | 64% | 1017.5 hPa | 0 mm | - | 666 W/m² | - |
| 1787680227 | 24.44° C | 67% | 1017.7 hPa | 0 mm | - | 717 W/m² | - |
| 1787679927 | 24.44° C | 63% | 1017.6 hPa | 0 mm | - | 733 W/m² | - |
| 1787679621 | 24.44° C | 65% | 1017.7 hPa | 0 mm | - | 548 W/m² | - |
| 1787679317 | 23.33° C | 66% | 1017.7 hPa | 0 mm | - | 767 W/m² | - |
| 1787679013 | 24.44° C | 65% | 1017.9 hPa | 0 mm | - | 533 W/m² | - |
| 1787678713 | 24.44° C | 65% | 1017.9 hPa | 0 mm | - | 269 W/m² | - |
| 1787678407 | 24.44° C | 65% | 1017.8 hPa | 0 mm | - | 246 W/m² | - |
| 1787678103 | 24.44° C | 70% | 1018.2 hPa | 0 mm | - | 526 W/m² | - |
| 1787677802 | 23.89° C | 66% | 1017.8 hPa | 0 mm | - | 482 W/m² | - |
| 1787677497 | 23.89° C | 65% | 1017.9 hPa | 0 mm | - | 304 W/m² | - |
| 1787677196 | 24.44° C | 68% | 1018.2 hPa | 0 mm | - | 310 W/m² | - |
| 1787676896 | 25.56° C | 64% | 1017.8 hPa | 0 mm | - | 398 W/m² | - |
| 1787676596 | 25° C | 67% | 1017.9 hPa | 0 mm | - | 811 W/m² | - |
| 1787676293 | 25° C | 68% | 1018.1 hPa | 0 mm | - | 865 W/m² | - |
| 1787675989 | 25.56° C | 66% | 1017.8 hPa | 0 mm | - | 529 W/m² | - |
| 1787675685 | 25° C | 68% | 1018.1 hPa | 0 mm | - | 848 W/m² | - |
* Rain latest hour (hover to see other rain measurements)
** Current wind speed in m/s (hover to see current wind gust speed)